User: anonymous   Login
Location: Unspecified
(0.0000°N, 0.0000°E)
Time: 07:18:48
(UTC+00:00)
Language:

Uribyol 2 - Orbit

View from above orbital plane
View from above orbital plane
View from above satellite
View from above satellite

Ground track
Ground track

The orbit is defined by the following mean orbital elements,

1 22828U          26106.66816367 +.00000000 +00000-0 +47204-4 0 00004
2 22828  98.6892 173.9644 0009059 222.1701 137.8786 14.31775941    00
Epoch (UTC): 16 April 2026 16:02:09
Eccentricity: 0.0009059
inclination: 98.6892°
perigee height: 779 km
apogee height: 792 km
right ascension of ascending node: 173.9644°
argument of perigee: 222.1701°
revolutions per day: 14.31775941
mean anomaly at epoch: 137.8786°

The dashed part of the orbit path shows where the satellite is in the earth's shadow,  

DLR